Tracking 20942 objects as of 10-Jul-2020
HD Live streaming from Space Station
objects crossing your sky now

COSMOS 982

Track COSMOS 982 now!
10-day predictions
COSMOS 982 is classified as:


NORAD ID: 10589
Int'l Code: 1978-005G
Perigee: 1,470.0 km
Apogee: 1,522.8 km
Inclination: 74.0 °
Period: 115.7 minutes
Semi major axis: 7867 km
RCS: 0.7047 m2 (medium)
Launch date: January 10, 1978
Source: Commonwealth of Independent States (former USSR) (CIS)
Launch site: PLESETSK MISSILE AND SPACE COMPLEX (PKMTR)
aabbcc
Your satellite tracking list
Your tracking list is empty




NASA's NSSDC Master Catalog

Two Line Element Set (TLE):
1 10589U 78005G   20191.77001436 -.00000029 +00000-0 -92767-4 0  9992
2 10589 074.0280 196.8518 0033572 247.0950 286.4853 12.44100784929907
Source of the keplerian elements: AFSPC